When you browse on this site, cookies collect data to enhance your experience and personalize the content and advertising you see.
Visit our Privacy Policy to learn more. By continuing to use the site, you agree to this use of cookies and data.

Tiempo cada hora Stekolnaya Slobodka

Hoy, 15 Agosto, Sábado

Tiempo Temperatura Precipitaciones Viento Presión Humedad
00:00 +9°C° 0 mm 2 mps 747 mmHg 87%
01:00 +9°C° 0 mm 2 mps 747 mmHg 88%
02:00 +9°C° 0 mm 2 mps 747 mmHg 91%
03:00 +8°C° 0 mm 2 mps 748 mmHg 92%
04:00 +8°C° 0 mm 2 mps 748 mmHg 92%
05:00 +8°C° 0 mm 2 mps 748 mmHg 93%
06:00 +10°C° 0 mm 2 mps 748 mmHg 86%
07:00 +13°C° 0 mm 2 mps 748 mmHg 79%
08:00 +14°C° 0 mm 3 mps 748 mmHg 72%
09:00 +16°C° 0 mm 3 mps 748 mmHg 67%
10:00 +17°C° 0 mm 3 mps 748 mmHg 62%
11:00 +18°C° 0 mm 3 mps 748 mmHg 58%
12:00 +19°C° 0 mm 3 mps 748 mmHg 57%
13:00 +19°C° 0 mm 3 mps 748 mmHg 56%
14:00 +19°C° 0 mm 3 mps 748 mmHg 56%
15:00 +19°C° 0 mm 3 mps 747 mmHg 60%
16:00 +19°C° 0 mm 2 mps 747 mmHg 63%
17:00 +19°C° 0 mm 2 mps 747 mmHg 66%
18:00 +17°C° 0 mm 2 mps 747 mmHg 70%
19:00 +16°C° 0 mm 2 mps 747 mmHg 73%
20:00 +15°C° 0 mm 2 mps 747 mmHg 77%
21:00 +14°C° 0 mm 2 mps 747 mmHg 80%
22:00 +14°C° 0 mm 2 mps 746 mmHg 83%
23:00 +14°C° 0 mm 2 mps 746 mmHg 86%

Mañana, 16 Agosto, Domingo

Tiempo Temperatura Precipitaciones Viento Presión Humedad
00:00 +14°C° 0.5 mm 1 mps 746 mmHg 89%
01:00 +14°C° 0.5 mm 1 mps 746 mmHg 92%
02:00 +13°C° 0.5 mm 1 mps 746 mmHg 95%
03:00 +13°C° 0.5 mm 1 mps 746 mmHg 95%
04:00 +13°C° 0.5 mm 1 mps 746 mmHg 95%
05:00 +13°C° 0.5 mm 1 mps 746 mmHg 96%
06:00 +15°C° 0 mm 1 mps 746 mmHg 91%
07:00 +16°C° 0 mm 1 mps 746 mmHg 87%
08:00 +17°C° 0 mm 2 mps 745 mmHg 82%
09:00 +18°C° 0 mm 2 mps 745 mmHg 80%
10:00 +18°C° 0 mm 2 mps 745 mmHg 77%
11:00 +19°C° 0 mm 2 mps 745 mmHg 75%
12:00 +20°C° 0 mm 2 mps 745 mmHg 71%
13:00 +21°C° 0 mm 2 mps 745 mmHg 67%
14:00 +23°C° 0 mm 2 mps 745 mmHg 64%
15:00 +23°C° 0.1 mm 2 mps 744 mmHg 67%
16:00 +22°C° 0.1 mm 3 mps 744 mmHg 71%
17:00 +21°C° 0.1 mm 3 mps 744 mmHg 74%
18:00 +20°C° 0 mm 2 mps 744 mmHg 79%
19:00 +19°C° 0 mm 2 mps 744 mmHg 85%
20:00 +17°C° 0 mm 2 mps 744 mmHg 90%
21:00 +17°C° 0 mm 2 mps 744 mmHg 91%
22:00 +16°C° 0 mm 3 mps 744 mmHg 92%
23:00 +16°C° 0 mm 3 mps 744 mmHg 93%

Pasado mañana, 17 Agosto, Lunes

Tiempo Temperatura Precipitaciones Viento Presión Humedad
00:00 +16°C° 0 mm 3 mps 744 mmHg 93%
01:00 +16°C° 0 mm 3 mps 744 mmHg 93%
02:00 +14°C° 0 mm 3 mps 744 mmHg 93%
03:00 +14°C° 0 mm 3 mps 744 mmHg 93%
04:00 +14°C° 0 mm 3 mps 744 mmHg 93%
05:00 +14°C° 0 mm 3 mps 744 mmHg 94%
06:00 +17°C° 0 mm 3 mps 744 mmHg 89%
07:00 +19°C° 0 mm 3 mps 744 mmHg 84%
08:00 +20°C° 0 mm 3 mps 744 mmHg 79%
09:00 +22°C° 0.1 mm 4 mps 744 mmHg 73%
10:00 +23°C° 0.1 mm 4 mps 744 mmHg 67%
11:00 +26°C° 0.1 mm 5 mps 744 mmHg 61%
12:00 +26°C° 0.5 mm 5 mps 743 mmHg 61%
13:00 +26°C° 0.5 mm 5 mps 743 mmHg 62%
14:00 +26°C° 0.5 mm 5 mps 743 mmHg 62%
15:00 +25°C° 0.3 mm 5 mps 743 mmHg 66%
16:00 +25°C° 0.3 mm 4 mps 743 mmHg 69%
17:00 +23°C° 0.3 mm 4 mps 743 mmHg 73%
18:00 +22°C° 0.1 mm 3 mps 743 mmHg 78%
19:00 +20°C° 0.1 mm 3 mps 743 mmHg 82%
20:00 +19°C° 0.1 mm 3 mps 743 mmHg 87%
21:00 +18°C° 0 mm 3 mps 743 mmHg 89%
22:00 +18°C° 0 mm 3 mps 743 mmHg 90%
23:00 +17°C° 0 mm 2 mps 744 mmHg 92%

18 Agosto, Martes

Tiempo Temperatura Precipitaciones Viento Presión Humedad
00:00 +17°C° 0 mm 2 mps 744 mmHg 93%
01:00 +16°C° 0 mm 2 mps 744 mmHg 94%
02:00 +16°C° 0 mm 2 mps 744 mmHg 95%
03:00 +15°C° 0 mm 2 mps 744 mmHg 94%
04:00 +15°C° 0 mm 1 mps 744 mmHg 94%
05:00 +15°C° 0 mm 1 mps 744 mmHg 94%
06:00 +16°C° 0 mm 1 mps 744 mmHg 87%
07:00 +18°C° 0 mm 2 mps 744 mmHg 80%
08:00 +20°C° 0 mm 2 mps 745 mmHg 74%
09:00 +21°C° 0 mm 2 mps 745 mmHg 69%
10:00 +23°C° 0 mm 2 mps 745 mmHg 65%
11:00 +24°C° 0 mm 2 mps 744 mmHg 60%
12:00 +24°C° 0 mm 2 mps 744 mmHg 59%
13:00 +25°C° 0 mm 2 mps 744 mmHg 57%
14:00 +25°C° 0 mm 2 mps 744 mmHg 56%
15:00 +25°C° 0.1 mm 2 mps 744 mmHg 60%
16:00 +25°C° 0.1 mm 2 mps 744 mmHg 64%
17:00 +24°C° 0.1 mm 2 mps 744 mmHg 68%
18:00 +23°C° 0.1 mm 2 mps 743 mmHg 72%
19:00 +20°C° 0.1 mm 2 mps 743 mmHg 75%
20:00 +19°C° 0.1 mm 2 mps 743 mmHg 78%
21:00 +18°C° 0.5 mm 2 mps 743 mmHg 80%
22:00 +18°C° 0.5 mm 2 mps 743 mmHg 82%
23:00 +17°C° 0.5 mm 2 mps 743 mmHg 84%

19 Agosto, Miércoles

Tiempo Temperatura Precipitaciones Viento Presión Humedad
00:00 +17°C° 0.6 mm 2 mps 743 mmHg 86%
01:00 +17°C° 0.6 mm 3 mps 743 mmHg 87%
02:00 +16°C° 0.6 mm 3 mps 743 mmHg 89%
03:00 +16°C° 0 mm 3 mps 743 mmHg 89%
04:00 +16°C° 0 mm 2 mps 743 mmHg 89%
05:00 +16°C° 0 mm 2 mps 743 mmHg 89%
06:00 +17°C° 0 mm 2 mps 743 mmHg 87%
07:00 +19°C° 0 mm 1 mps 743 mmHg 84%
08:00 +21°C° 0 mm 1 mps 743 mmHg 81%
09:00 +22°C° 0.3 mm 1 mps 743 mmHg 75%
10:00 +23°C° 0.3 mm 1 mps 743 mmHg 68%
11:00 +23°C° 0.3 mm 0 mps 743 mmHg 62%
12:00 +24°C° 0.3 mm 1 mps 743 mmHg 66%
13:00 +24°C° 0.3 mm 2 mps 743 mmHg 69%
14:00 +23°C° 0.3 mm 2 mps 743 mmHg 73%
15:00 +21°C° 0.4 mm 3 mps 743 mmHg 77%
16:00 +20°C° 0.4 mm 4 mps 743 mmHg 82%
17:00 +19°C° 0.4 mm 5 mps 743 mmHg 86%
18:00 +17°C° 0.4 mm 5 mps 743 mmHg 87%
19:00 +17°C° 0.4 mm 5 mps 743 mmHg 87%
20:00 +17°C° 0.4 mm 5 mps 743 mmHg 88%
21:00 +17°C° 0 mm 5 mps 743 mmHg 86%
22:00 +17°C° 0 mm 5 mps 743 mmHg 84%
23:00 +17°C° 0 mm 5 mps 743 mmHg 82%

20 Agosto, Jueves

Tiempo Temperatura Precipitaciones Viento Presión Humedad
00:00 +17°C° 0 mm 5 mps 743 mmHg 83%
01:00 +17°C° 0 mm 5 mps 743 mmHg 84%
02:00 +19°C° 0 mm 5 mps 743 mmHg 85%
03:00 +17°C° 0 mm 5 mps 743 mmHg 86%
04:00 +18°C° 0 mm 4 mps 742 mmHg 87%
05:00 +18°C° 0 mm 4 mps 742 mmHg 88%
06:00 +19°C° 0 mm 4 mps 742 mmHg 83%
07:00 +20°C° 0 mm 4 mps 742 mmHg 79%
08:00 +21°C° 0 mm 5 mps 742 mmHg 75%
09:00 +23°C° 0 mm 4 mps 743 mmHg 71%
10:00 +25°C° 0 mm 4 mps 743 mmHg 68%
11:00 +26°C° 0 mm 4 mps 743 mmHg 65%
12:00 +27°C° 0 mm 4 mps 743 mmHg 62%
13:00 +28°C° 0 mm 4 mps 743 mmHg 59%
14:00 +29°C° 0 mm 4 mps 743 mmHg 57%
15:00 +28°C° 0 mm 4 mps 743 mmHg 61%
16:00 +27°C° 0 mm 3 mps 743 mmHg 64%
17:00 +27°C° 0 mm 2 mps 743 mmHg 68%
18:00 +25°C° 0.5 mm 2 mps 743 mmHg 72%
19:00 +23°C° 0.5 mm 2 mps 743 mmHg 75%
20:00 +20°C° 0.5 mm 2 mps 743 mmHg 79%
21:00 +20°C° 0 mm 2 mps 744 mmHg 79%
22:00 +20°C° 0 mm 2 mps 744 mmHg 80%
23:00 +19°C° 0 mm 2 mps 744 mmHg 81%
Mostrar más